Regional Weather Roundup
Issued by NWS Green Bay, WI

Home | Current Version | Previous Version | Graphics & Text | Print | Product List | Glossary Off
Versions: 1 2 3 4 5 6 7 8 9 10 11 12 13 14 15 16 17 18 19 20 21 22 23 24 25 26 27 28 29 30 31 32 33 34 35 36 37 38 39 40 41 42 43 44 45 46 47 48 49 50

000
ASUS43 KGRB 301510
RWRGRB

NORTH-CENTRAL AND NORTHEAST WISCONSIN REGIONAL WEATHER ROUNDUP
NATIONAL WEATHER SERVICE GREEN BAY WI
1000 AM CDT THU OCT 30 2014

WIZ005-009-010>012-018-019-301600-
NORTH CENTRAL WISCONSIN

CITY           SKY/WX    TMP DP  RH WIND       PRES   REMARKS
IRONWOOD       CLOUDY    37  34  87 W6        30.03R
MANITOWISH WTR CLOUDY    35  32  87 NW6       30.04S
ARBOR VITAE    CLOUDY    39  34  81 NW7       30.04R
EAGLE RIVER    CLOUDY    37  32  80 CALM      30.02F
LAND O LAKES   CLOUDY    37  33  85 CALM      30.03F
RHINELANDER    CLOUDY    37  31  78 W7        30.05R
PHILLIPS       CLOUDY    37  32  84 CALM      30.05S
ANTIGO         CLOUDY    36  33  90 W6        30.05S
TOMAHAWK       CLOUDY    37  32  83 CALM      30.06R
MERRILL        CLOUDY    36  34  92 W3        30.06S
$$

WIZ013-073-301600-
NORTHEAST WISCONSIN

CITY           SKY/WX    TMP DP  RH WIND       PRES   REMARKS
IRON MOUNTAIN  CLOUDY    40  33  76 NW8       30.03S
MARINETTE      PTSUNNY   43  32  65 W7        30.05F
OCONTO         CLOUDY    41  36  81 CALM      30.07F
$$

WIZ017-030-035>037-045-301600-
CENTRAL WISCONSIN

CITY           SKY/WX    TMP DP  RH WIND       PRES   REMARKS
MEDFORD        CLOUDY    36  33  90 CALM      30.06R
WAUSAU         CLOUDY    37  34  89 CALM      30.06S
MOSINEE        CLOUDY    36  36 100 SW3       30.07S
MARSHFIELD     CLOUDY    40  35  83 SW3       30.06S
WISC RAPIDS    CLOUDY    40  35  83 W3        30.09S
STEVENS POINT  CLOUDY    37  32  84 W3        30.08S
WAUPACA        CLOUDY    40  39  94 SW3       30.09S
SHAWANO        CLOUDY    40  35  80 CALM      30.08F
CLINTONVILLE   CLOUDY    37  34  87 SW3       30.08S
$$

WIZ038-039-048-051-301600-
FOX VALLEY

CITY           SKY/WX    TMP DP  RH WIND       PRES   REMARKS
NWS GREEN BAY  CLOUDY    43  37  79 VRB3      30.08S
APPLETON       PTSUNNY   39  34  81 SW8       30.08F
OSHKOSH        PTSUNNY   40  35  83 SW5       30.08F
FOND DU LAC    PTSUNNY   41  35  79 SW6       30.09F
$$

WIZ022-050-052-301600-
EAST CENTRAL WISCONSIN

CITY           SKY/WX    TMP DP  RH WIND       PRES   REMARKS
STURGEON BAY   CLOUDY    43  36  75 W7        30.08S
MANITOWOC      CLOUDY    45  36  70 SW7       30.09F
SHEBOYGAN      CLOUDY    43  35  73 SW7       30.09F
$$

LMZ563-521-522-541>543-301600-
LAKESHORE

STATION/POSITION TIME  TEMP    WIND        PRES    VSBY  WAVE
                       AIR SEA DIR/SP/G                  HT/PER
                 (UTC) (F)     (DEG/KT/KT) (MB)    (MI)  (FT/S)
SHEBOYGAN LKSHOR 1500   44 50  240/  9/ 10 1019.6F
KEWAUNEE LKSHORE 1500   42     240/  5/  8 1017.7R
NORTHPORT PIER   1500   45     190/  3/  5 1017.9S
N MID LAKE BUOY  1500   42 50   80/  2/  2 1018.4F         0
CHAMBERS ISLAND  1500   44     230/  7/ 12 1018.3S
MENOMINEE LKSHOR 1500   44     260/  6/  9 1018.5F
$$



USA.gov is the U.S. government's official web portal to all federal, state and local government web resources and services.